www.pogodaiklimat.ru

Погода и климат >> Архив погоды >> Россия >> Чукотка >> Мыс Ванкарем


ПОГОДА на Мысе Ванкарем

  • Прогноз погоды на Мысе Ванкарем
  • Монитор погоды на Мысе Ванкарем
  • Климат города

АРХИВ ПОГОДЫ на Мысе Ванкарем

Время (UTC), дата Ветер
(напр.,м/с)
 
Видим.   Явления Облачность Т
(С)
Тd
(С)
f
(%)
Тe
(С)
Тes
(С)
Комфортность P
(гПа)
Po
(гПа)
Тmin
(С)
Tmax
(С)
R
(мм)
R24
(мм)
S
(см)
09 10.12 СЗ 2
{4}
20 км 6/0
[Ac trans]
-16.2 -19.6 75 -21 -21 1025.5 1024.9 -7.7
00 11.12 С 10
{13}
10 км позёмок {метель} 9/4 600 м
[Sc Ci fib]
-13.4 -16.1 80 -25 -25 1023.9 1023.3
03 11.12 С 10
{13}
10 км позёмок {метель} 9/4 600 м
[Sc Ci fib]
-13.4 -16.1 80 -25 -25 1023.9 1023.3
06 11.12 С 13
{17}
2000 м метель 10/10 600 м
[Sc]
-13.6 -16.3 80 -26 -26 1022.1 1021.5 -13.4
15 11.12 С 13
{21}
1000 м метель 9/9 600 м
[Sc]
-13.7 -16.4 80 -27 -27 1017.9 1017.3
18 11.12 СЗ 14
{23}
1000 м метель 9/5 600 м
[Sc Ac trans]
-12.7 -15.4 80 -26 -26 1016.9 1016.3 -13.7
21 11.12 С 14
{23}
1000 м метель 10/10 600 м
[Sc]
-12.5 -14.5 85 -25 -25 1015.9 1015.3
00 12.12 С 14
{22}
1000 м метель {снег} ?/? -13.0 -15.0 85 -26 -26 1015.1 1014.5
03 12.12 С 13
{20}
1000 м метель ?/? -13.9 -15.9 85 -27 -27 1014.3 1013.7
06 12.12 С 14
{21}
1000 м метель ?/? -13.4 -15.4 85 -26 -26 1013.6 1013.0 -12.5 0.5
18 12.12 С 13
{19}
1000 м метель ?/? -13.9 -15.9 85 -27 -27 1009.6 1009.0 -14.0 0.5
21 12.12 С 5
{14}
10 км {метель} 10/10 600 м
[Sc]
-13.5 -15.5 85 -22 -22 1008.8 1008.2
00 13.12 С 5
{7}
10 км {метель} 10/10 600 м
[Sc]
-12.0 -14.0 85 -20 -20 1008.5 1007.9
03 13.12 С 6
{9}
2000 м снег {метель} 10/0
[As op]
-11.2 -11.8 95 -20 -20 1007.5 1006.9
06 13.12 С 6
{9}
2000 м снег {метель} 10/0
[As op]
-10.7 -11.3 95 -19 -19 1006.8 1006.2 -10.0 2
00 14.12 В 6
{8}
4000 м слабый снег {метель} 10/0
[As op]
-8.0 -8.6 95 -16 -16 995.8 995.2
03 14.12 В 5
{8}
4000 м слабый снег {метель} 10/0
[As op]
-7.4 -8.3 93 -15 -15 995.2 994.6
06 14.12 В 5
{8}
4000 м слабый снег {метель} 10/0
[As op]
-6.8 -7.6 94 -14 -14 996.2 995.6 -5.9 1
18 14.12 В 6
{9}
4000 м слабый снег {метель} 10/0
[As op]
-3.5 -4.3 94 -11 -11 999.1 998.5 -6.8 2
21 14.12 СВ 5
{8}
4000 м слабый снег {метель} 10/0
[As op]
-4.1 -5.0 93 -11 -11 999.4 998.8
00 15.12 С 6
{8}
10 км позёмок {снег, метель} 10/0 300 м
[As op]
-4.9 -7.0 85 -13 -13 998.7 998.1
03 15.12 СВ 6
{9}
2000 м снег {метель} 10/0
[As op]
-5.2 -5.9 95 -13 -13 997.6 997.0
06 15.12 СВ 6
{8}
4000 м слабый снег {метель} 10/0 300 м
[As op]
-4.5 -5.4 93 -12 -12 998.4 997.8 -3.5 0.8
21 15.12 СВ 1
{7}
4000 м слабый снег {метель} 10/0
[As op]
-4.4 -5.3 93 -7 -7 1001.8 1001.2
00 16.12 СВ 2
{4}
10 км {снег, метель} 10/10 600 м
[Sc]
-5.0 -7.1 85 -9 -9 1001.8 1001.2
03 16.12 С 4
{6}
10 км 10/10 600 м
[Sc]
-5.4 -7.5 85 -12 -12 1000.9 1000.3
06 16.12 СВ 7
{9}
4000 м слабый снег {метель} 10/0 300 м
[As op]
-5.1 -6.8 88 -13 -13 1001.2 1000.6 -4.0 0.5
00 17.12 С 9
{11}
4000 м слабый снег {метель} 10/0 300 м
[As op]
-8.4 -9.4 92 -18 -18 1004.9 1004.3

 

Местоположение метеостанции Мыс Ванкарем (Чукотка, Россия): широта 67.83 долгота -175.00 высота над уровнем моря 5 м.

В архиве по умолчанию представлена погода на Мысе Ванкарем за последнюю неделю. Архивные данные за месяц целиком и за предыдущие месяцы, начиная с января 2011 года, Вы можете получить, выбрав интересующий диапазон дат из раскрывающегося списка и нажав кнопку "Ввод!".

Внимание! Время в таблицах - всемирное. Для получения местного времени необходимо прибавить поправку, которая на Мысе Ванкарем равна 12 ч.

Смотрите также архив погоды в соседних городах и на ближайших метеорологических станциях:

Погода на Мысе Шмидта (Чукотка, Россия) (201 км)
Погода в Эгвекиноте (Чукотка, Россия) (239 км)
Погода в Уэлене (Чукотка, Россия) (320 км)
Погода на Острове Врангеля (Чукотка, Россия) (369 км)

Пояснения к столбцам:

Ветер - указаны скорость ветра в м/с - средняя за 10 мин, порывы в срок и между сроками (в фигурных скобках) и направление, откуда дует ветер: С - северный, СВ - северо-восточный, В - восточный, ЮВ - юго-восточный, Ю - южный, ЮЗ - юго-западный, З - западный, СЗ - северо-западный.
Видимость - горизонтальная дальность видимости в метрах или километрах. При видимости от 1 до 10 км при отсутствии осадков обычно наблюдается дымка, при ухудшении видимости до 1 км и менее - туман. В сухую погоду видимость может ухудшаться дымом, пылью или мглою.
Явления - указаны атмосферные явления, наблюдавшиеся в срок или в последний час перед сроком; фигурными скобками обозначены явления, наблюдавшиеся между сроками (за 1-3 часа до срока); квадратными скобками обозначены град или гололедные отложения с указанием их диаметра в мм.
Облачность - указаны через наклонную черту общая и нижняя облачность в баллах и высота нижней границы облаков в метрах; квадратными скобками обозначены формы облаков: Ci - перистые, Cs - перисто-слоистые, Cc - перисто-кучевые, Ac - высококучевые, As - высокослоистые, Sc - слоисто-кучевые, Ns - слоисто-дождевые, Cu - кучевые, Cb - кучево-дождевые. Подробнее классификацию облаков см. в Атласе облаков (PDF).
T - Температура воздуха - температура, измеренная на высоте 2 м над землей.
Td - Температура точки росы - температура, при понижении до которой содержащийся в воздухе водяной пар достигнет насыщения.
f - Относительная влажность воздуха - влажноcть воздуха, измеренная на высоте 2 м над землей.
Te - Эффективная температура - температура, которую ощущает одетый по сезону человек в тени. Характеристика душности погоды. При расчете учитывается влияние влажности воздуха и скорости ветра на теплоощущения человека.
Tes - Эффективная температура на солнце - температура, которую ощущает человек, с поправкой на солнечный нагрев. Характеристика знойности погоды. Зависит от высоты солнца над горизонтом, облачности и скорости ветра. Ночью, в пасмурную погоду, а также при ветре 12 м/с и более поправка равна нулю.
P - Атмосферное давление - приведенное к уровню моря атмосферное давление.
Po - Атмосферное давление - измеренное на уровне метеостанции атмосферное давление.
Tmin - Минимальная температура - минимум температуры воздуха на высоте 2 м над землей.
Tmax - Максимальная температура - максимум температуры воздуха на высоте 2 м над землей.
R - Количество осадков - Количество выпавших осадков за период времени, мм. При наведении курсора мыши на число - период времени, за который выпало указанное количество осадков.
R24 - Количество осадков - Количество выпавших осадков за 24 часа, мм.
S - Снежный покров - Высота снежного покрова, см. При наведении курсора мыши на число - состояние снежного покрова и степень покрытия местности в баллах.